Weather History for Florala, AL

Change the Weather History Date:

Wednesday, November 6, 2013

  Actual Average (KCEW) Record (KCEW)
Temperature  
Mean Temperature 67 °F -  
Max Temperature 77 °F 71 °F 86 °F (1996)
Min Temperature 57 °F 43 °F 24 °F (1991)
Cooling Degree Days 2    
Growing Degree Days 17 (Base 50)    
Moisture  
Dew Point 59 °F    
Average Humidity 78    
Maximum Humidity 90    
Minimum Humidity 62    
Precipitation  
Precipitation 0.00 in - - ()
Sea Level Pressure  
Sea Level Pressure 30.17 in    
Wind  
Wind Speed 5 mph (East)    
Max Wind Speed 9 mph    
Max Gust Speed -    
Visibility 10 miles    
Events      
Averages and records for this station are not official NWS values.
T = Trace of Precipitation, MM = Missing Value Source: NWS Daily Summary

Daily Weather History Graph

Daily Weather History Graph

Search for Another Location

Airport:

Trip Planner

Search our weather history database for the weather conditions in past years. The results will help you decide how hot, cold, wet, or windy it might be!

Date:

Astronomy

Nov. 06, 2013 Rise Set
Actual Time 6:04 AM CST 4:52 PM CST
Civil Twilight 5:39 AM CST 5:17 PM CST
Nautical Twilight 5:10 AM CST 5:46 PM CST
Astronomical Twilight 4:42 AM CST 6:15 PM CST
Moon 9:13 AM CST (11/6) 8:01 PM CST (11/6)
Length of Visible Light 11h 38m
Length of Day
10h 47m
Waxing Crescent, 14% of the Moon is Illuminated
Nov 6
Waxing Crescent
Nov 9
First Quarter
Nov 17
Full
Nov 25
Last Quarter
Dec 2
New

Hourly Weather History & Observations

Time (CST) Temp. Dew Point Humidity Pressure Visibility Wind Dir Wind Speed Gust Speed Precip Events Conditions
12:58 AM 57.9 °F 48.9 °F 72% 30.19 in 10.0 mi ENE 4.6 mph - N/A   Clear
1:58 AM 57.0 °F 48.9 °F 74% 30.19 in 10.0 mi ENE 5.8 mph - N/A   Scattered Clouds
2:58 AM 57.9 °F 50.0 °F 75% 30.18 in 10.0 mi ENE 5.8 mph - N/A   Mostly Cloudy
3:58 AM 57.9 °F 51.1 °F 78% 30.18 in 10.0 mi East 6.9 mph - N/A   Scattered Clouds
4:04 AM 57.2 °F 51.8 °F 82% 30.18 in 10.0 mi East 8.1 mph - N/A   Mostly Cloudy
4:52 AM 57.2 °F 53.6 °F 88% 30.19 in 10.0 mi East 4.6 mph - N/A   Mostly Cloudy
4:58 AM 57.9 °F 54.0 °F 87% 30.18 in 10.0 mi East 5.8 mph - N/A   Mostly Cloudy
5:09 AM 59.0 °F 53.6 °F 82% 30.18 in 10.0 mi East 5.8 mph - N/A   Mostly Cloudy
5:58 AM 60.1 °F 57.0 °F 90% 30.19 in 10.0 mi East 5.8 mph - N/A   Overcast
6:58 AM 62.1 °F 57.9 °F 86% 30.20 in 10.0 mi Variable 6.9 mph - N/A   Overcast
7:09 AM 62.6 °F 57.2 °F 82% 30.21 in 10.0 mi East 4.6 mph - N/A   Overcast
7:58 AM 63.0 °F 59.0 °F 87% 30.21 in 10.0 mi East 9.2 mph - N/A   Overcast
8:58 AM 64.9 °F 60.1 °F 84% 30.22 in 10.0 mi ESE 8.1 mph - N/A   Overcast
9:20 AM 66.2 °F 60.8 °F 83% 30.23 in 10.0 mi ESE 6.9 mph - N/A   Overcast
9:57 AM 69.1 °F 61.0 °F 75% 30.22 in 10.0 mi East 6.9 mph - N/A   Scattered Clouds
10:05 AM 69.8 °F 60.8 °F 73% 30.22 in 10.0 mi ESE 6.9 mph - N/A   Mostly Cloudy
10:12 AM 69.8 °F 60.8 °F 73% 30.21 in 10.0 mi East 8.1 mph - N/A   Scattered Clouds
10:58 AM 73.0 °F 62.1 °F 68% 30.19 in 10.0 mi East 6.9 mph - N/A   Scattered Clouds
11:58 AM 75.9 °F 63.0 °F 64% 30.15 in 10.0 mi Variable 5.8 mph - N/A   Mostly Cloudy
12:58 PM 77.0 °F 63.0 °F 62% 30.13 in 10.0 mi SSE 5.8 mph - N/A   Mostly Cloudy
1:58 PM 77.0 °F 63.0 °F 62% 30.12 in 10.0 mi South 4.6 mph - N/A   Scattered Clouds
2:58 PM 77.0 °F 64.0 °F 64% 30.11 in 10.0 mi East 3.5 mph - N/A   Overcast
3:58 PM 75.9 °F 64.0 °F 67% 30.11 in 10.0 mi Calm Calm - N/A   Mostly Cloudy
4:58 PM 73.0 °F 64.9 °F 76% 30.11 in 10.0 mi East 3.5 mph - N/A   Mostly Cloudy
5:58 PM 70.0 °F 64.9 °F 84% 30.12 in 10.0 mi Calm Calm - N/A   Partly Cloudy
6:58 PM 71.1 °F 64.0 °F 78% 30.13 in 10.0 mi Calm Calm - N/A   Overcast
7:58 PM 69.1 °F 64.0 °F 84% 30.13 in 10.0 mi Calm Calm - N/A   Scattered Clouds
8:58 PM 68.0 °F 63.0 °F 84% 30.12 in 10.0 mi Calm Calm - N/A   Clear
9:58 PM 68.0 °F 63.0 °F 84% 30.12 in 10.0 mi Calm Calm - N/A   Clear
10:58 PM 66.9 °F 63.0 °F 87% 30.11 in 10.0 mi Calm Calm - N/A   Clear
11:58 PM 66.0 °F 62.1 °F 87% 30.09 in 10.0 mi Calm Calm - N/A   Clear